Location: Deneb Observatory
(47.2267°N, 100.4953°W)
Time: 17:15:24
(UTC-05:00)

Amateur Radio Satellites - All Passes

Search period start: 22 September 2014 16:45
Search period end: 23 September 2014 16:45
Location: Deneb Observatory, 47.2267°N, 100.4953°W

Satellite Date Start Highest point End Downlink Frequencies (MHz)
Time Altitude Azimuth
Uosat F 22 Sep 17:21:32 17:26:31 69° 257° (WSW) 17:31:31 435.120 FM
Gurwin Techsat 1B 22 Sep 17:22:53 17:24:56 12° 274° (W) 17:26:59 435.225 FM
Saudisat 1A 22 Sep 17:43:47 17:48:09 67° 124° (SE) 17:52:33 436.775 MHz
Hamsat 22 Sep 17:57:50 18:01:43 33° 68° (ENE) 18:05:36 145.90 MHz
MaSat-1 22 Sep 18:07:45 18:11:37 68° 244° (WSW) 18:14:53 437.345 MHz
AO-7 22 Sep 18:12:23 18:19:49 36° 264° (W) 18:27:18 29.400 - 29.500 MHz
PCSat 22 Sep 18:19:28 18:20:37 11° 15° (NNE) 18:21:45 145.825 MHz
JAS-2 22 Sep 18:24:19 18:29:28 70° 72° (ENE) 18:34:43 435.800 - 435.900 CW/SSB, 435.910 FM
KITSAT 1 22 Sep 18:30:11 18:35:38 20° 102° (ESE) 18:41:06 435.175 FM
OPAL 22 Sep 18:31:24 18:36:31 58° 103° (ESE) 18:41:31 ?
SO-67 22 Sep 18:48:26 18:50:14 14° 64° (ENE) 18:52:03 435.3500 MHz FM
STRAND 1 22 Sep 19:18:58 19:21:51 15° 88° (E) 19:24:43 ?
HO-68 22 Sep 19:23:54 19:27:26 15° 44° (NE) 19:30:58 435.675 MHz FM
Saudisat 1A 22 Sep 19:24:36 19:28:09 23° 324° (NW) 19:31:43 436.775 MHz
Hamsat 22 Sep 19:33:57 19:37:41 28° 266° (W) 19:41:27 145.90 MHz
Sapphire 22 Sep 19:34:56 19:38:51 20° 33° (NNE) 19:42:45 437.095 MHz 1200 baud AX-25 AFSK
PCSat 22 Sep 20:01:22 20:06:00 28° 40° (NE) 20:10:37 145.825 MHz
OPAL 22 Sep 20:10:59 20:15:01 24° 302° (WNW) 20:19:00 ?
JAS-2 22 Sep 20:12:11 20:15:16 16° 272° (W) 20:18:23 435.800 - 435.900 CW/SSB, 435.910 FM
SO-67 22 Sep 20:19:34 20:22:54 46° 261° (W) 20:26:16 435.3500 MHz FM
KITSAT 1 22 Sep 20:21:47 20:29:53 84° 123° (ESE) 20:38:01 435.175 FM
STRAND 1 22 Sep 20:56:30 21:01:39 80° 287° (WNW) 21:06:48 ?
HO-68 22 Sep 21:06:46 21:13:41 57° 65° (ENE) 21:20:39 435.675 MHz FM
Sapphire 22 Sep 21:17:44 21:23:12 77° 55° (NE) 21:28:37 437.095 MHz 1200 baud AX-25 AFSK
Oscar 11 22 Sep 21:19:37 21:22:35 18° 62° (ENE) 21:25:33 145.825 FM, Beacon 2401.500 USB
UKube-1 22 Sep 21:38:37 21:42:34 36° 68° (ENE) 21:46:33 145.840 MHz, 145.915 MHz
PCSat 22 Sep 21:44:28 21:49:52 66° 241° (WSW) 21:55:13 145.825 MHz
ZACube-1 22 Sep 22:01:21 22:04:43 21° 62° (ENE) 22:08:08 437.345 MHz
KITSAT 1 22 Sep 22:18:59 22:26:12 34° 327° (NNW) 22:33:27 435.175 FM
SO-50 22 Sep 22:20:31 22:24:37 36° 118° (ESE) 22:28:50 436.795 FM
STRAND 1 22 Sep 22:37:34 22:40:03 14° 306° (NW) 22:42:31 ?
FUNcube-1 22 Sep 22:53:08 22:57:32 62° 73° (ENE) 23:02:04 145.950 - 145.970 MHz USB
Oscar 11 22 Sep 22:54:05 22:58:22 56° 260° (W) 23:02:42 145.825 FM, Beacon 2401.500 USB
HO-68 22 Sep 22:55:26 23:01:43 33° 265° (W) 23:08:04 435.675 MHz FM
Sapphire 22 Sep 23:02:21 23:06:00 19° 254° (WSW) 23:09:38 437.095 MHz 1200 baud AX-25 AFSK
UKube-1 22 Sep 23:15:16 23:18:52 25° 265° (W) 23:22:29 145.840 MHz, 145.915 MHz
Oscar 10/S400 22 Sep 23:17:13 23:52:55 49° 193° (SSW) 07:17:29 145.825 - 145.975 CW/USB, Beacon 145.810 USB
ZACube-1 22 Sep 23:36:27 23:40:47 49° 261° (W) 23:45:14 437.345 MHz
UOSAT-12 22 Sep 23:39:43 23:43:14 22° 113° (ESE) 23:46:48 437.025 FM, 437.400 FM
SO-50 23 Sep 00:00:58 00:05:10 37° 318° (NW) 00:09:30 436.795 FM
AO-40 23 Sep 00:12:30 01:54:35 20° 218° (SW) 04:47:51 Beacon 2401.320
KITSAT 1 23 Sep 00:18:44 00:24:25 20° 356° (N) 00:30:07 435.175 FM
Saudisat 1A 23 Sep 00:28:34 00:32:14 25° 37° (NE) 00:35:54 436.775 MHz
FUNcube-1 23 Sep 00:31:40 00:34:23 16° 271° (W) 00:37:09 145.950 - 145.970 MHz USB
UOSAT-12 23 Sep 01:18:24 01:23:00 59° 312° (NW) 01:27:41 437.025 FM, 437.400 FM
SO-50 23 Sep 01:45:06 01:47:06 13° 341° (NNW) 01:49:07 436.795 FM
Saudisat 1A 23 Sep 02:07:48 02:12:10 61° 237° (WSW) 02:16:31 436.775 MHz
Oscar 19 23 Sep 02:12:15 02:15:45 18° 90° (E) 02:19:13 437.125 CW, 437.150 USB
KITSAT 1 23 Sep 02:16:16 02:22:58 27° 25° (NNE) 02:29:39 435.175 FM
AO-Echo 23 Sep 02:35:30 02:38:11 15° 89° (E) 02:40:52 ?
AO-27 23 Sep 02:40:04 02:42:50 14° 88° (E) 02:45:35 436.795 MHz FM
RS-15 23 Sep 02:43:39 02:48:31 14° 95° (E) 02:53:21 29.354 - 29.394 USB, Beacon 29.352 USB
Oscar 16 23 Sep 02:50:48 02:55:40 40° 97° (E) 03:00:29 437.025 USB, Beacon 2401.1428
ISS 23 Sep 02:58:21 03:01:35 49° 147° (SSE) 03:04:49 145.800 FM
UOSAT-12 23 Sep 03:01:08 03:04:08 16° 334° (NNW) 03:07:08 437.025 FM, 437.400 FM
JAS-1B 23 Sep 03:39:13 03:44:49 52° 100° (E) 03:50:25 435.800 - 435.900 CW/SSB
ITAMSAT 1 23 Sep 03:41:48 03:46:52 48° 99° (E) 03:51:54 435.822 SSB
Uribyol 2 23 Sep 03:45:00 03:50:09 54° 101° (E) 03:55:16 436.500 FM
Oscar 19 23 Sep 03:50:27 03:55:36 67° 288° (WNW) 04:00:41 437.125 CW, 437.150 USB
Gurwin Techsat 1B 23 Sep 03:52:12 03:56:54 31° 95° (E) 04:01:35 435.225 FM
KITSAT 1 23 Sep 04:11:48 04:19:54 71° 51° (NE) 04:27:57 435.175 FM
OPAL 23 Sep 04:11:59 04:16:05 24° 58° (ENE) 04:20:12 ?
AO-Echo 23 Sep 04:12:37 04:17:30 77° 286° (WNW) 04:22:30 ?
AO-27 23 Sep 04:17:46 04:23:01 84° 286° (WNW) 04:28:15 436.795 MHz FM
AO-7 23 Sep 04:18:52 04:22:49 14° 84° (E) 04:26:45 29.400 - 29.500 MHz
TMSAT-1 23 Sep 04:26:32 04:31:39 46° 99° (E) 04:36:44 436.925 FM
Oscar 16 23 Sep 04:30:23 04:34:55 31° 296° (WNW) 04:39:25 437.025 USB, Beacon 2401.1428
ISS 23 Sep 04:35:06 04:38:20 46° 347° (NNW) 04:41:35 145.800 FM
RS-15 23 Sep 04:47:38 04:58:23 62° 117° (ESE) 05:09:03 29.354 - 29.394 USB, Beacon 29.352 USB
SO-50 23 Sep 05:08:46 05:12:17 20° 31° (NNE) 05:15:50 436.795 FM
ITAMSAT 1 23 Sep 05:21:47 05:26:07 27° 298° (WNW) 05:30:26 435.822 SSB
Uribyol 2 23 Sep 05:25:08 05:29:17 25° 299° (WNW) 05:33:26 436.500 FM
Uosat F 23 Sep 05:26:23 05:30:45 29° 95° (E) 05:35:05 435.120 FM
JAS-1B 23 Sep 05:30:36 05:35:14 26° 301° (WNW) 05:39:48 435.800 - 435.900 CW/SSB
Gurwin Techsat 1B 23 Sep 05:32:01 05:36:58 41° 293° (WNW) 05:41:54 435.225 FM
Oscar 19 23 Sep 05:32:17 05:33:59 12° 308° (NW) 05:35:39 437.125 CW, 437.150 USB
OPAL 23 Sep 05:49:28 05:54:35 58° 257° (WSW) 05:59:46 ?
AO-Echo 23 Sep 05:53:37 05:55:31 12° 304° (NW) 05:57:26 ?
AO-27 23 Sep 05:58:59 06:01:46 15° 305° (NW) 06:04:33 436.795 MHz FM
TMSAT-1 23 Sep 06:06:53 06:11:22 29° 297° (WNW) 06:15:51 436.925 FM
KITSAT 1 23 Sep 06:07:52 06:14:43 32° 252° (WSW) 06:21:33 435.175 FM
AO-7 23 Sep 06:08:56 06:17:13 67° 105° (ESE) 06:25:27 29.400 - 29.500 MHz
ISS 23 Sep 06:12:19 06:15:28 38° 7° (N) 06:18:38 145.800 FM
UOSAT-12 23 Sep 06:25:52 06:28:33 15° 23° (NNE) 06:31:13 437.025 FM, 437.400 FM
STRAND 1 23 Sep 06:37:26 06:41:49 30° 64° (ENE) 06:46:15 ?
SO-50 23 Sep 06:48:45 06:53:35 81° 52° (NE) 06:58:27 436.795 FM
RS-15 23 Sep 07:00:32 07:11:07 51° 323° (NW) 07:21:47 29.354 - 29.394 USB, Beacon 29.352 USB
Uosat F 23 Sep 07:04:57 07:09:39 41° 293° (WNW) 07:14:20 435.120 FM
JAS-2 23 Sep 07:13:00 07:18:57 51° 100° (E) 07:25:39 435.800 - 435.900 CW/SSB, 435.910 FM
Hamsat 23 Sep 07:15:57 07:20:00 41° 98° (E) 07:23:59 145.90 MHz
ISS 23 Sep 07:49:04 07:52:25 85° 208° (SSW) 07:55:45 145.800 FM
MaSat-1 23 Sep 07:55:33 07:59:42 27° 108° (ESE) 08:03:46 437.345 MHz
AO-7 23 Sep 08:02:19 08:09:31 35° 306° (NW) 08:16:44 29.400 - 29.500 MHz
UOSAT-12 23 Sep 08:05:13 08:09:50 48° 46° (NE) 08:14:23 437.025 FM, 437.400 FM
STRAND 1 23 Sep 08:16:07 08:20:53 40° 262° (W) 08:25:42 ?
SO-50 23 Sep 08:30:39 08:33:35 16° 250° (WSW) 08:36:31 436.795 FM
Hamsat 23 Sep 08:52:28 08:55:43 22° 296° (WNW) 08:58:56 145.90 MHz
JAS-2 23 Sep 08:58:34 09:03:53 33° 296° (WNW) 09:09:47 435.800 - 435.900 CW/SSB, 435.910 FM
SO-67 23 Sep 09:12:54 09:16:19 60° 286° (WNW) 09:19:43 435.3500 MHz FM
RS-15 23 Sep 09:17:15 09:26:41 31° 356° (N) 09:36:15 29.354 - 29.394 USB, Beacon 29.352 USB
ISS 23 Sep 09:26:35 09:28:43 16° 224° (SW) 09:30:50 145.800 FM
MaSat-1 23 Sep 09:31:23 09:36:13 48° 305° (NW) 09:40:50 437.345 MHz
UOSAT-12 23 Sep 09:45:47 09:49:47 28° 245° (WSW) 09:53:44 437.025 FM, 437.400 FM
AO-7 23 Sep 09:58:16 09:59:51 11° 330° (NNW) 10:01:25 29.400 - 29.500 MHz
HO-68 23 Sep 10:18:26 10:25:14 43° 98° (E) 10:32:00 435.675 MHz FM
Oscar 11 23 Sep 10:39:11 10:42:33 21° 92° (E) 10:45:52 145.825 FM, Beacon 2401.500 USB
FUNcube-1 23 Sep 10:42:01 10:42:58 11° 85° (E) 10:43:55 145.950 - 145.970 MHz USB
UKube-1 23 Sep 10:59:28 11:03:38 42° 99° (E) 11:07:47 145.840 MHz, 145.915 MHz
MaSat-1 23 Sep 11:12:24 11:13:58 11° 324° (NW) 11:15:30 437.345 MHz
ZACube-1 23 Sep 11:22:51 11:26:49 27° 94° (E) 11:30:43 437.345 MHz
RS-15 23 Sep 11:32:17 11:42:40 43° 30° (NNE) 11:53:19 29.354 - 29.394 USB, Beacon 29.352 USB
Sapphire 23 Sep 12:02:56 12:07:50 36° 113° (ESE) 12:12:45 437.095 MHz 1200 baud AX-25 AFSK
HO-68 23 Sep 12:06:15 12:12:58 45° 298° (WNW) 12:19:40 435.675 MHz FM
Oscar 11 23 Sep 12:14:48 12:18:55 42° 290° (WNW) 12:22:59 145.825 FM, Beacon 2401.500 USB
FUNcube-1 23 Sep 12:15:25 12:20:05 87° 104° (ESE) 12:24:39 145.950 - 145.970 MHz USB
PCSat 23 Sep 12:28:57 12:34:16 62° 118° (ESE) 12:39:38 145.825 MHz
Oscar 16 23 Sep 12:34:54 12:37:23 14° 54° (NE) 12:39:53 437.025 USB, Beacon 2401.1428
UKube-1 23 Sep 12:36:11 12:39:36 23° 297° (WNW) 12:43:01 145.840 MHz, 145.915 MHz
JAS-1B 23 Sep 12:40:23 12:44:22 16° 52° (NE) 12:48:03 435.800 - 435.900 CW/SSB
ZACube-1 23 Sep 12:59:02 13:03:17 37° 292° (WNW) 13:07:29 437.345 MHz
ITAMSAT 1 23 Sep 13:26:11 13:29:20 17° 56° (ENE) 13:32:30 435.822 SSB
Uribyol 2 23 Sep 13:28:55 13:32:22 18° 57° (ENE) 13:35:51 436.500 FM
Oscar 19 23 Sep 13:31:45 13:36:27 36° 66° (ENE) 13:41:11 437.125 CW, 437.150 USB
Gurwin Techsat 1B 23 Sep 13:40:44 13:42:32 12° 52° (NE) 13:44:19 435.225 FM
RS-15 23 Sep 13:45:04 13:56:09 80° 237° (WSW) 14:07:40 29.354 - 29.394 USB, Beacon 29.352 USB
Sapphire 23 Sep 13:46:03 13:51:11 43° 312° (NW) 13:56:22 437.095 MHz 1200 baud AX-25 AFSK
AO-Echo 23 Sep 13:51:22 13:55:13 26° 64° (ENE) 13:59:04 ?
FUNcube-1 23 Sep 13:53:31 13:55:47 14° 302° (WNW) 13:58:02 145.950 - 145.970 MHz USB
HO-68 23 Sep 13:56:48 13:58:55 12° 320° (NW) 14:01:02 435.675 MHz FM
AO-27 23 Sep 14:00:39 14:05:08 31° 64° (ENE) 14:09:38 436.795 MHz FM
Oscar 16 23 Sep 14:10:43 14:15:54 78° 73° (ENE) 14:21:08 437.025 USB, Beacon 2401.1428
TMSAT-1 23 Sep 14:13:20 14:16:31 16° 56° (NE) 14:19:43 436.925 FM
PCSat 23 Sep 14:13:25 14:18:05 29° 319° (NW) 14:22:47 145.825 MHz
JAS-1B 23 Sep 14:26:04 14:34:04 67° 70° (ENE) 14:40:45 435.800 - 435.900 CW/SSB
ITAMSAT 1 23 Sep 15:02:59 15:08:10 84° 255° (WSW) 15:13:23 435.822 SSB
Uribyol 2 23 Sep 15:06:06 15:11:16 76° 256° (WSW) 15:16:30 436.500 FM
Oscar 19 23 Sep 15:11:06 15:15:48 34° 264° (W) 15:20:33 437.125 CW, 437.150 USB
Gurwin Techsat 1B 23 Sep 15:16:16 15:21:30 65° 72° (ENE) 15:26:47 435.225 FM
AO-7 23 Sep 15:20:25 15:27:22 31° 52° (NE) 15:34:19 29.400 - 29.500 MHz
AO-Echo 23 Sep 15:29:22 15:33:49 41° 262° (W) 15:38:17 ?
Sapphire 23 Sep 15:33:25 15:36:07 14° 336° (NNW) 15:38:49 437.095 MHz 1200 baud AX-25 AFSK
AO-27 23 Sep 15:39:39 15:44:31 41° 262° (W) 15:49:25 436.795 MHz FM
TMSAT-1 23 Sep 15:50:27 15:55:45 87° 255° (WSW) 16:01:05 436.925 FM
Oscar 16 23 Sep 15:52:50 15:55:53 16° 272° (W) 15:58:56 437.025 USB, Beacon 2401.1428
RS-15 23 Sep 15:58:57 16:06:47 23° 260° (W) 16:14:52 29.354 - 29.394 USB, Beacon 29.352 USB
PCSat 23 Sep 16:02:06 16:03:26 11° 344° (NNW) 16:04:46 145.825 MHz
MaSat-1 23 Sep 16:09:13 16:11:09 13° 38° (NE) 16:12:58 437.345 MHz
JAS-1B 23 Sep 16:18:21 16:25:01 28° 266° (W) 16:30:52 435.800 - 435.900 CW/SSB
Saudisat 1A 23 Sep 16:18:38 16:21:21 16° 111° (ESE) 16:24:05 436.775 MHz
